Location: Auckland
(36.8670°S, 174.7670°E)
Time: 23:29:40
(UTC+13:00)

Cosmos 1869 - Pass Details

Date: 24 January 2019
Orbit: 537 x 547 km, 82.5° (Epoch: 22 February)

Event Time Altitude Azimuth Distance (km) Brightness Sun altitude
Rises 20:58:24 0° 16° (NNE) 2,701 6.4 -4.4°
Reaches altitude 10° 21:00:42 10° 26° (NNE) 1,816 5.5 -4.8°
Maximum altitude 21:04:15 32° 89° (E) 964 4.1 -5.5°
Drops below altitude 10° 21:07:52 10° 152° (SSE) 1,836 6.0 -6.1°
Sets 21:10:12 0° 162° (SSE) 2,737 7.0 -6.5°
